This is the latest recevied weather packets stored in our database for station/object N5YHM-13. If no packets are shown the sender has not sent any weather packets the latest 10 day(s).
| Time | Temp. | Humidity | Pressure | Rain* | Wind** | Luminosity | Snow |
|---|---|---|---|---|---|---|---|
| 1787774554 | 33.33° C | 70% | 1016.3 hPa | 0 mm | - | 21 W/m² | - |
| 1787774253 | 33.33° C | 73% | 1016.6 hPa | 0 mm | - | 31 W/m² | - |
| 1787773953 | 33.33° C | 70% | 1016.4 hPa | 0 mm | - | 53 W/m² | - |
| 1787773651 | 33.33° C | 70% | 1016.4 hPa | 0 mm | - | 30 W/m² | - |
| 1787773348 | 33.89° C | 71% | 1016.7 hPa | 0 mm | - | 26 W/m² | - |
| 1787773042 | 33.33° C | 71% | 1016.6 hPa | 0 mm | - | 34 W/m² | - |
| 1787772738 | 33.33° C | 71% | 1016.6 hPa | 0 mm | - | 40 W/m² | - |
| 1787772436 | 33.33° C | 73% | 1016.7 hPa | 0 mm | - | 26 W/m² | - |
| 1787772130 | 33.33° C | 72% | 1016.8 hPa | 0 mm | - | 30 W/m² | - |
| 1787771830 | 33.33° C | 73% | 1016.7 hPa | 0 mm | - | 31 W/m² | - |
| 1787771529 | 33.33° C | 71% | 1016.9 hPa | 0 mm | - | 65 W/m² | - |
| 1787771224 | 33.89° C | 72% | 1016.6 hPa | 0 mm | - | 25 W/m² | - |
| 1787770919 | 33.33° C | 72% | 1016.9 hPa | 0 mm | - | 42 W/m² | - |
| 1787770617 | 32.78° C | 74% | 1016.8 hPa | 0 mm | - | 58 W/m² | - |
| 1787770311 | 32.78° C | 72% | 1017.2 hPa | 0 mm | - | 40 W/m² | - |
| 1787770010 | 32.78° C | 75% | 1017.4 hPa | 0 mm | - | 62 W/m² | - |
| 1787769700 | 32.78° C | 72% | 1017.3 hPa | 0 mm | - | 386 W/m² | - |
| 1787769398 | 32.78° C | 73% | 1017.1 hPa | 0 mm | - | 361 W/m² | - |
| 1787769094 | 32.78° C | 72% | 1017.4 hPa | 0 mm | - | 226 W/m² | - |
| 1787768788 | 32.22° C | 73% | 1017.5 hPa | 0 mm | - | 24 W/m² | - |
| 1787768485 | 32.22° C | 75% | 1017.5 hPa | 0 mm | - | 91 W/m² | - |
| 1787768180 | 32.22° C | 76% | 1017.9 hPa | 0 mm | - | 23 W/m² | - |
| 1787767876 | 32.22° C | 76% | 1017.8 hPa | 0 mm | - | 149 W/m² | - |
| 1787767571 | 32.22° C | 79% | 1018 hPa | 0 mm | - | 339 W/m² | - |
| 1787767270 | 31.67° C | 74% | 1018 hPa | 0 mm | - | 24 W/m² | - |
* Rain latest hour (hover to see other rain measurements)
** Current wind speed in m/s (hover to see current wind gust speed)